SCP
0 0 0 0 0 0 0 0 0 0 0 0 0 0 0 0 0 0 0 0 0 0 0 0 0 0 0 0 0 0 0 0 0 0 0 0 0 0 0 0 0 0 0 0 0 -0 -0 0 0 0 0 -0 0 1
0 0 0 0 0 0 0 0 0 0 0 0 0 0 0 0 0 0 0 0 0 0 0 0 0 0 0 0 0 0 0 0 0 0 0 0 0 0 0 0 0 0 0 0 0 0 0 -0 0 0 0 -0 0 0
0 0 0 0 0 0 0 0 0 0 0 0 0 0 0 0 0 0 0 0 0 0 0 0 0 0 0 0 0 0 0 0 0 0 0 0 0 0 0 0 0 0 0 0 0 0 0 0 -0 -0 0 0 0 0
0 0 0 0 0 0 0 0 0 0 0 0 0 0 0 0 0 0 0 0 0 0 0 0 0 0 0 0 0 0 0 0 0 0 0 0 0 0 0 0 0 0 0 0 0 0 0 0 0 0 -0 0 0 0
0 0 0 0 0 0 0 0 0 0 0 0 0 0 0 0 0 0 0 0 0 0 0 0 0 -0 0 0 0 0 0 0 0 0 0 0 0 0 0 0 0 0 0 0 0 1 1 0 0 0 0 0 -0 0
0 0 0 0 0 0 0 0 0 0 0 0 0 0 0 0 0 0 0 0 0 0 0 0 0 0 0 0 0 0 0 0 0 0 0 0 0 0 0 0 0 -0 -0 0 0 0 0 -0 0 -0 0 0 0 0
0 0 0 0 0 0 0 0 0 0 0 0 0 0 0 0 0 0 0 0 0 0 0 0 0 0 0 0 0 0 0 0 0 0 0 0 0 0 0 0 0 0 0 0 0 0 0 0 0 -0 -0 0 0 -0
0 0 0 0 0 0 0 0 0 0 0 0 0 0 0 0 0 0 0 0 0 0 0 0 0 0 0 0 0 0 0 0 0 0 0 0 0 0 0 0 0 0 0 0 0 0 0 0 0 -0 0 0 0 0
0 0 0 0 0 0 0 0 0 0 0 0 0 0 0 0 0 0 0 0 0 0 0 0 0 0 0 0 0 0 0 0 0 0 0 0 0 0 0 0 0 0 0 0 0 0 0 0 0 0 -0 0 0 0
0 0 0 0 0 0 0 0 0 0 0 0 0 0 0 0 0 0 0 0 0 0 0 0 0 0 0 0 0 0 0 0 0 0 0 0 0 0 0 0 0 0 0 0 0 0 -0 0 0 0 0 0 0 0
0 0 0 0 0 0 0 0 0 0 0 0 0 0 0 0 0 0 0 0 0 0 0 0 0 0 0 0 0 0 0 0 0 0 0 0 0 0 0 -0 0 0 0 0 0 0 0 0 0 0 0 -0 0 0
0 0 0 0 0 0 0 0 0 0 0 0 0 0 0 0 0 0 0 0 0 0 0 0 0 0 0 0 1 1 0 0 0 0 0 0 1 1 1 1 1 0 0 0 0 0 0 -0 -0 -0 0 0 0 0
0 0 0 0 0 0 0 0 0 0 0 0 0 0 0 0 0 0 0 0 0 0 0 0 0 0 0 0 0 0 0 0 0 0 0 0 1 0 1 1 0 0 0 0 0 0 0 0 -0 -0 0 0 0 1
0 0 0 0 0 0 0 0 0 0 0 0 0 0 0 0 0 0 0 0 0 0 0 0 0 0 0 0 0 0 0 0 0 0 0 1 1 0 0 0 0 0 0 0 0 0 0 0 0 0 0 0 1 1
0 0 0 0 0 0 0 0 0 0 0 0 0 0 0 0 0 0 0 0 0 0 0 0 0 0 0 0 0 0 0 0 0 0 1 1 1 1 0 0 0 0 0 0 0 0 0 0 0 0 1 1 1 0
0 0 0 0 0 0 0 0 0 0 0 0 0 0 0 0 -0 0 0 0 0 0 0 0 0 0 0 0 0 0 0 0 0 0 0 0 0 0 0 0 0 0 0 0 0 0 0 0 1 1 1 1 0 0
0 0 0 0 0 0 0 0 0 0 0 0 0 0 0 0 0 0 0 0 0 0 0 0 0 0 0 0 0 0 0 0 0 0 0 0 0 0 0 0 0 0 0 0 0 0 0 1 1 1 0 0 0 0
0 0 0 0 0 0 0 0 0 0 0 0 0 0 0 0 0 0 0 0 0 0 0 0 0 0 0 0 0 0 0 0 0 0 0 0 0 0 0 0 0 0 0 0 0 1 1 0 0 0 0 0 0 0
0 0 0 0 0 0 0 0 0 0 0 0 0 0 0 0 0 0 0 0 0 0 0 0 0 0 0 0 0 0 0 0 0 0 0 0 0 0 0 0 0 0 0 0 0 1 1 0 0 0 0 0 0 0
0 0 0 0 0 0 0 0 0 0 0 0 0 0 0 0 0 0 0 0 0 0 0 0 0 0 -0 0 0 0 0 0 0 0 0 0 0 0 0 0 0 0 0 0 0 0 0 1 0 0 0 0 0 0
0 0 0 0 0 0 0 0 0 0 0 0 0 0 0 0 0 0 0 0 0 0 0 0 0 0 0 0 0 0 0 0 0 0 0 0 0 0 0 0 0 0 0 0 0 0 0 0 1 0 0 0 0 0
0 0 0 0 0 0 0 0 0 0 0 0 0 0 0 0 0 0 0 -0 0 -0 -0 -0 -0 -0 -0 -0 0 0 0 0 0 0 0 0 0 0 0 0 0 0 0 0 0 0 0 0 0 0 0 1 0 0
0 0 0 0 0 0 0 0 0 0 0 0 0 0 0 -0 0 -0 -0 0 0 0 0 -0 -0 0 -0 -0 0 0 0 0 0 0 0 0 0 0 0 0 0 0 0 0 0 0 0 0 0 0 0 0 0 0
0 0 0 0 0 0 0 0 0 -0 -0 -0 0 -0 -0 -0 0 0 0 0 0 0 0 0 0 -0 0 0 0 0 0 0 0 -0 0 0 0 0 0 0 0 0 0 0 -0 0 -0 -0 -0 0 0 0 0 0
0 0 0 0 0 0 0 -0 -0 -0 -0 -0 0 0 0 -0 -0 0 0 0 0 -0 -0 -0 -0 -0 0 0 0 0 0 0 0 0 0 0 0 0 0 0 0 0 0 0 0 -0 0 -0 -0 -0 -0 -0 -0 0
0 0 0 0 0 -0 -0 -0 0 0 0 0 0 0 0 0 0 0 0 0 0 -0 -0 -0 -0 0 -0 -0 0 -0 0 0 0 0 0 0 0 0 0 0 0 0 0 0 0 0 0 0 0 -0 0 0 -0 -0
0 0 0 0 0 0 0 0 0 0 0 0 0 0 0 0 0 0 0 0 0 0 0 0 0 0 0 0 0 0 0 0 0 0 0 0 0 0 0 0 0 0 0 0 0 0 -0 0 -0 0 0 -0 0 0
0 0 0 0 0 0 0 0 0 0 0 0 0 0 0 0 0 0 0 0 0 0 0 0 0 0 0 0 0 0 0 0 0 -0 -0 -0 0 0 0 0 0 0 0 -0 -0 -0 -0 -0 0 -0 0 0 0 0
0 0 0 0 0 0 0 0 0 0 0 0 0 0 0 0 0 0 0 0 0 0 0 0 0 -0 -0 -0 0 -0 0 0 0 0 -0 -0 0 0 -0 0 0 -0 -0 -0 0 -0 0 0 0 0 0 0 0 0
-0 0 0 0 0 0 0 0 0 0 -0 -0 0 0 0 0 0 0 0 0 -0 -0 0 0 0 -0 -0 0 0 0 0 0 -0 -0 -0 -0 -0 0 -0 -0 -0 -0 -0 -0 -0 -0 -0 -0 0 0 0 0 0 0
0 0 0 0 0 0 0 0 0 0 0 0 0 0 -0 -0 0 0 0 0 0 0 -0 -0 -0 -0 -0 -0 -0 -0 -0 -0 -0 -0 -0 -0 -0 -0 -0 -0 -0 -0 0 0 0 0 0 0 0 0 0 0 0 0
0 -0 0 0 0 0 0 0 0 0 0 0 0 0 0 -0 -0 -0 -0 -0 -0 -0 -0 -0 -0 -0 -0 -0 -0 0 0 -0 0 0 -0 -0 -0 -0 -0 -0 -0 -0 -0 -0 0 0 -0 0 0 0 0 0 0 0
0 0 0 0 0 0 0 0 0 0 0 0 -0 -0 -0 -0 -0 -0 0 0 -0 -0 -0 -0 -0 -0 -0 -0 -0 -0 -0 -0 -0 -0 0 -0 0 -0 0 0 0 0 0 0 0 0 0 0 0 0 0 0 0 0
Wind_Speed_500mb
39 40 41 42 42 56 58 53 54 52 43 37 32 25 20 14 10 5 3 13 8 20 39 20 20 22 24 18 16 17 7 6 13 20 20 22 22 15 16 25 21 21 12 18 29 28 24 29 21 11 27 90 16 17
35 40 43 42 43 54 57 49 50 51 48 40 34 27 23 16 10 4 1 11 11 19 22 24 26 28 27 23 26 23 26 7 16 10 12 14 21 23 13 18 23 22 20 15 16 10 17 14 12 35 15 85 27 19
39 38 41 42 39 46 59 46 46 51 50 44 39 29 23 17 11 13 6 12 16 25 41 36 29 23 32 33 24 23 15 19 9 16 15 11 19 19 14 13 30 13 34 21 18 10 16 17 3 25 13 24 30 28
38 39 40 40 38 39 57 48 42 44 47 45 38 32 24 18 13 12 7 13 9 15 13 2 6 15 15 25 33 35 35 22 21 17 21 14 17 15 17 21 22 26 9 19 15 24 12 32 17 5 44 25 27 25
37 38 39 39 38 36 57 46 41 41 42 42 37 28 26 19 13 10 8 12 6 7 14 28 27 19 13 14 21 27 32 30 24 21 17 16 29 23 26 23 18 31 23 13 22 38 33 0 20 26 40 43 34 22
35 37 38 40 34 40 53 48 44 43 46 44 37 29 25 18 11 4 4 3 10 4 11 7 7 15 13 11 19 25 26 33 36 32 21 34 40 30 15 22 29 33 35 7 16 9 11 9 44 38 51 48 31 22
35 37 37 36 32 36 53 50 40 42 49 42 35 30 28 21 20 8 7 12 20 4 7 12 10 17 14 16 17 22 20 28 31 35 38 38 37 27 20 26 37 45 42 33 23 7 11 8 21 43 49 34 34 30
31 36 37 32 33 35 55 52 39 39 44 39 35 33 30 25 15 5 6 10 19 4 5 7 9 6 14 15 14 19 18 22 30 35 29 34 35 39 19 31 39 39 41 34 25 27 41 43 36 40 38 37 40 33
31 35 31 33 38 43 56 48 43 43 38 38 38 32 26 17 10 12 15 13 10 8 5 10 14 5 4 21 4 12 14 12 23 19 28 19 20 16 19 43 43 33 32 27 33 35 37 35 41 42 34 36 36 28
33 33 33 41 37 48 50 47 49 42 46 52 49 14 11 15 20 11 10 8 4 8 11 14 17 9 8 10 7 8 12 13 12 19 27 22 24 48 44 45 34 30 21 26 38 40 40 39 30 23 25 28 29 32
33 36 42 43 42 51 49 55 54 67 65 44 13 10 22 25 13 9 8 11 10 8 14 21 31 15 11 8 6 5 6 8 14 18 17 14 23 28 64 43 7 9 18 26 34 36 37 43 42 36 34 37 25 26
37 34 34 46 46 45 57 60 74 75 37 18 19 28 28 9 6 8 8 9 12 9 17 21 25 33 9 3 11 7 6 7 11 11 7 25 6 16 12 5 5 14 21 28 32 36 37 40 40 42 44 36 26 25
34 38 44 42 49 57 58 77 74 43 40 43 11 12 9 7 5 11 14 9 8 12 13 15 11 23 16 9 11 9 10 11 10 9 6 1 11 6 4 6 13 18 22 27 30 34 37 39 39 37 36 32 21 24
33 44 46 51 53 59 78 73 53 52 26 8 11 10 9 9 12 13 15 5 9 11 12 21 3 6 23 13 6 9 10 8 7 13 14 11 13 5 9 13 17 23 25 24 33 24 22 20 28 28 23 13 17 11
45 43 45 48 63 79 77 55 53 38 5 6 11 9 14 24 7 11 6 10 14 17 23 12 5 6 4 7 8 10 5 9 11 15 16 23 15 10 13 18 21 25 21 24 27 19 8 9 14 17 21 23 28 22
46 49 54 60 66 74 52 40 35 5 2 5 9 7 13 21 21 16 18 15 18 19 26 15 6 7 13 9 11 12 12 5 6 6 26 19 17 15 16 20 23 19 20 23 20 11 6 5 8 11 15 22 24 15
51 65 56 57 63 66 34 32 9 3 7 6 8 8 17 16 11 13 11 7 14 18 7 6 7 15 11 7 11 6 6 8 19 4 22 17 15 18 19 21 22 16 13 13 12 9 3 10 13 13 20 21 20 27
65 47 46 53 53 49 19 6 2 4 9 12 13 11 6 13 10 12 9 8 6 9 11 6 11 7 7 5 5 9 28 22 25 16 21 18 13 13 15 19 14 11 9 9 6 4 7 11 14 14 18 24 26 29
51 47 49 45 39 17 6 4 5 7 11 22 11 15 12 12 7 7 7 6 10 9 7 6 9 12 5 8 6 10 9 14 12 14 17 23 9 9 14 20 11 9 11 8 4 4 3 9 11 18 16 19 23 26
51 50 49 43 28 8 7 9 11 10 9 9 13 15 18 15 10 11 17 14 12 7 9 9 13 18 9 10 6 9 11 9 10 14 17 25 24 18 15 18 12 10 7 8 10 18 6 6 12 8 12 22 27 28
41 36 31 24 6 5 6 6 13 10 9 12 14 14 18 5 8 8 11 8 6 12 19 30 33 30 28 27 20 17 17 19 22 24 28 26 23 17 19 18 15 9 6 2 6 8 7 0 2 17 12 18 24 21
27 23 12 19 5 5 8 9 9 9 9 14 11 12 6 9 9 8 14 13 10 26 28 28 30 31 36 35 28 26 32 32 32 33 41 37 33 31 16 14 17 10 9 15 16 16 16 12 16 16 11 20 14 19
18 9 3 7 6 8 10 9 7 4 4 10 14 7 6 8 10 15 8 9 16 20 33 40 43 37 34 35 35 33 30 28 31 31 34 33 30 14 16 15 20 19 20 19 11 7 6 5 3 11 11 14 10 19
2 5 5 5 8 8 5 6 6 3 4 5 5 6 5 7 14 4 5 9 19 31 40 18 13 16 14 18 20 22 22 22 26 33 25 19 13 16 13 18 24 31 23 22 11 12 16 20 17 20 16 15 13 17
7 6 8 10 9 9 4 2 3 5 4 3 3 3 4 8 4 4 5 14 24 30 41 28 31 27 21 10 3 8 11 12 14 15 16 16 14 16 31 28 24 18 13 9 29 23 19 19 19 15 15 15 14 15
5 7 5 9 6 6 4 3 2 3 1 2 3 3 6 3 1 4 3 24 29 35 29 34 34 35 33 26 24 21 21 12 12 18 16 17 20 40 41 30 22 18 26 26 14 15 17 10 15 15 18 17 17 15
6 11 10 6 6 6 2 3 6 4 4 1 0 3 2 6 11 14 34 32 20 19 22 25 28 39 46 47 35 28 35 38 42 42 36 27 29 31 33 33 28 23 34 25 18 10 14 6 7 6 12 18 16 11
4 4 9 7 5 12 3 5 4 8 7 7 5 11 9 12 4 1 15 29 36 50 40 38 18 18 15 34 45 40 33 36 40 45 51 46 38 35 31 44 26 14 7 2 5 18 8 9 8 9 7 3 2 7
4 9 9 11 10 9 16 13 11 15 15 14 7 5 0 0 12 18 23 31 20 14 21 44 42 31 35 43 41 36 34 28 20 14 23 20 9 16 28 27 17 3 6 4 10 11 12 11 10 7 2 8 11 6
22 17 8 10 9 10 13 18 27 30 37 45 38 23 16 25 34 23 36 34 37 35 30 35 41 41 44 40 32 37 40 41 43 41 30 24 10 14 10 11 8 11 10 4 13 8 11 12 5 12 11 12 19 19
11 10 12 8 7 10 17 16 19 19 21 19 27 32 32 37 39 39 36 37 38 39 39 37 37 40 39 34 32 31 30 34 36 33 28 27 26 23 34 28 26 24 13 12 14 11 15 16 18 20 4 6 11 11
7 10 10 6 6 7 13 13 17 18 13 15 10 23 28 32 41 41 39 36 39 40 39 37 35 33 31 29 29 25 24 27 34 42 39 29 21 13 24 23 20 19 22 19 21 23 21 19 9 10 12 10 14 18
16 23 23 10 5 3 8 7 8 10 14 22 33 28 28 30 31 28 32 37 37 36 36 32 29 29 28 28 26 27 23 26 28 32 46 43 29 20 19 24 26 24 20 18 18 20 15 13 14 16 17 16 19 20
Wind_Direction_500mb
253 252 251 249 247 223 227 229 226 225 226 228 239 251 264 281 290 225 142 290 263 286 279 286 299 296 300 289 281 19 282 273 280 262 247 264 268 268 255 277 169 220 199 231 249 273 276 4 28 74 318 314 7 335
253 254 247 243 241 225 221 227 224 220 224 223 231 238 256 264 276 221 289 287 271 260 269 296 272 263 262 276 305 302 295 327 354 279 257 266 263 275 275 245 257 255 271 316 321 342 131 118 167 153 179 260 329 316
254 255 244 239 240 229 218 221 223 219 217 220 224 230 246 250 252 220 207 281 310 283 290 258 259 265 246 239 239 276 260 339 282 323 325 288 282 274 283 275 310 271 262 276 294 156 159 90 106 209 239 307 311 318
252 251 241 235 237 233 215 213 214 212 211 212 213 223 231 246 241 225 203 282 295 294 280 105 181 267 255 229 232 237 268 291 277 295 286 280 294 306 283 281 284 289 326 329 315 285 232 68 64 225 325 324 315 313
245 245 232 232 230 229 213 211 209 209 207 204 206 213 224 231 236 222 227 270 265 305 314 308 314 254 259 230 226 235 242 244 263 264 252 258 265 276 281 287 277 286 308 276 274 100 115 257 356 310 317 318 304 305
241 236 228 223 230 224 206 200 205 204 202 199 197 209 209 212 205 140 187 191 248 269 294 279 291 247 239 239 234 232 234 233 240 251 262 266 263 288 271 273 279 265 257 360 16 29 108 211 285 261 263 286 296 285
238 228 223 218 226 218 199 193 195 199 195 186 189 201 194 178 144 189 217 203 193 212 276 285 255 177 212 228 230 222 226 228 232 241 245 259 267 265 264 266 280 294 304 318 325 282 182 237 230 244 258 283 285 271
231 214 209 214 218 199 188 188 189 188 183 177 182 174 168 168 183 196 230 183 174 221 251 269 264 188 184 209 195 214 219 219 230 236 248 233 249 253 258 264 270 275 287 282 281 277 267 269 267 266 266 269 270 266
208 202 207 204 194 182 183 187 182 176 175 171 158 155 140 143 183 215 209 182 183 169 264 257 281 71 158 244 217 169 241 221 233 229 232 252 237 230 232 237 248 264 269 274 285 288 287 269 253 252 255 254 257 262
202 199 203 183 178 176 181 177 174 172 169 146 136 115 174 177 194 167 160 195 197 212 230 254 272 251 280 254 181 241 218 242 244 220 228 223 244 258 249 242 248 250 283 294 289 280 274 272 264 268 243 245 251 261
189 184 176 175 170 177 175 175 167 146 141 136 140 150 147 144 140 196 210 211 165 229 227 237 229 231 247 269 287 231 300 258 241 231 206 228 222 231 231 245 190 272 278 285 279 274 266 264 267 261 260 261 256 279
166 175 169 177 172 175 168 164 154 151 140 145 151 128 132 161 205 229 201 201 205 238 187 219 203 210 235 294 245 279 241 248 252 313 240 233 95 80 70 82 259 276 287 289 283 276 269 262 257 255 258 271 279 263
164 167 169 170 162 163 164 154 149 140 135 131 108 142 150 158 218 222 195 198 209 196 203 200 191 182 212 272 247 194 245 218 205 201 227 96 115 111 50 314 295 297 297 293 286 278 267 259 253 251 251 262 259 244
149 145 146 153 161 164 153 150 148 152 147 140 150 150 207 209 216 226 228 127 228 195 194 194 219 241 210 184 261 262 221 249 208 230 212 131 112 68 10 346 328 312 307 292 296 290 277 246 236 230 240 215 196 161
131 138 147 156 156 153 151 153 155 156 133 200 198 205 213 229 227 235 222 189 225 166 161 146 339 292 274 262 248 260 260 234 234 236 108 123 96 49 13 356 340 328 322 311 314 308 275 252 225 208 196 197 203 190
132 134 139 145 151 154 156 163 157 171 278 243 229 231 257 243 239 198 242 222 251 207 163 180 200 205 204 193 231 240 230 221 48 69 118 106 61 33 8 355 352 340 335 327 324 326 258 225 196 180 176 200 220 195
139 135 143 150 157 161 142 158 136 275 280 238 233 264 257 277 274 279 265 229 237 253 157 212 209 222 217 220 199 245 334 134 74 16 119 86 47 21 2 357 353 343 347 338 346 306 137 119 109 116 139 155 163 145
134 133 148 155 158 166 137 99 10 297 262 251 275 252 287 271 250 250 240 252 210 225 226 230 280 252 244 254 21 22 358 53 58 61 44 27 20 11 4 348 8 347 338 345 356 45 105 116 121 131 140 137 141 152
128 134 141 143 143 117 116 202 286 290 269 292 282 309 279 273 223 225 220 230 219 232 279 273 262 252 36 360 149 167 261 20 21 356 345 359 352 7 8 356 2 332 330 290 49 75 181 203 215 161 144 153 151 155
133 136 139 141 138 109 190 208 210 265 277 290 276 279 266 259 265 253 248 242 216 209 229 227 239 279 91 68 43 304 299 316 316 311 305 321 332 343 343 343 308 296 303 314 272 239 45 265 26 88 155 163 157 156
135 144 145 150 195 273 261 236 224 249 282 266 281 273 295 288 210 260 282 269 250 231 245 247 263 287 302 318 304 290 287 285 283 284 289 294 298 310 309 310 287 269 225 169 68 55 170 347 79 110 102 149 139 156
154 152 157 190 299 273 264 241 251 282 260 290 353 332 332 352 357 22 316 242 240 258 266 287 298 305 294 295 294 295 281 269 273 268 272 265 271 274 267 285 224 205 161 150 139 120 102 85 90 99 108 113 113 138
136 150 229 222 248 244 272 229 260 242 300 353 348 3 28 9 360 338 287 297 296 338 317 290 276 269 266 273 280 272 276 271 262 254 255 254 258 257 271 261 210 174 176 184 172 161 147 104 152 119 127 128 139 140
241 249 247 234 231 254 259 246 217 224 73 26 359 344 18 347 338 340 284 301 311 351 357 359 308 284 260 264 270 277 282 276 256 249 252 252 250 258 219 185 173 173 172 164 163 206 202 180 179 157 170 161 153 156
262 246 233 255 249 221 197 37 46 56 69 26 359 351 354 347 337 321 299 332 355 13 23 50 60 68 62 113 7 338 327 285 268 252 234 211 192 169 159 159 155 143 171 244 186 172 164 160 143 157 163 166 167 170
282 222 181 335 23 28 41 61 55 26 99 246 260 181 207 239 184 274 359 18 2 32 42 34 32 33 53 64 67 51 30 59 150 142 130 164 184 164 152 144 143 64 64 74 121 148 188 178 149 158 154 154 174 180
291 29 357 23 334 332 339 254 230 221 242 240 108 173 192 39 47 358 360 15 2 13 12 14 36 70 72 56 57 81 78 71 76 80 79 99 123 150 152 142 151 91 86 81 102 212 320 352 177 215 202 199 196 208
287 280 354 15 35 18 328 328 34 17 28 6 60 30 29 25 49 34 29 38 44 41 41 39 54 81 106 85 58 69 90 89 92 89 93 94 110 121 139 167 173 185 236 293 13 6 330 357 29 43 28 344 146 201
285 78 71 22 24 36 23 23 24 30 64 55 64 60 347 347 6 18 30 20 19 192 72 62 70 96 106 110 82 71 58 53 40 50 83 81 118 165 157 163 167 181 239 346 321 326 341 307 310 323 124 5 331 252
76 68 94 42 24 40 44 81 89 93 110 103 109 105 79 59 42 43 38 39 44 53 53 58 57 57 70 62 66 68 55 51 48 49 39 31 93 79 14 296 239 20 242 215 263 269 347 344 321 343 305 305 287 288
71 64 75 70 68 42 44 66 100 119 118 123 113 95 86 72 60 52 48 44 49 51 50 49 46 45 44 44 42 41 37 30 28 35 46 30 21 34 28 9 10 16 1 348 343 347 338 317 311 334 305 337 328 310
55 109 129 106 76 18 31 65 74 83 94 105 108 118 98 74 63 51 43 47 49 46 43 43 44 39 36 40 39 37 36 26 21 16 5 1 360 5 15 3 347 350 350 334 327 339 325 335 346 334 354 348 320 335
103 106 99 84 73 65 33 62 47 55 53 69 70 74 82 77 66 53 47 42 43 40 37 34 35 31 29 25 21 20 17 7 5 10 5 12 17 14 10 5 359 345 332 318 314 316 340 3 1 354 360 346 333 330
Wind_Speed_850mb
39 40 41 42 42 56 58 53 54 52 43 37 32 25 20 14 10 5 3 13 8 20 39 20 20 22 24 18 16 17 7 6 13 20 20 22 22 15 16 25 21 21 12 18 29 28 24 29 21 11 27 90 16 17
35 40 43 42 43 54 57 49 50 51 48 40 34 27 23 16 10 4 1 11 11 19 22 24 26 28 27 23 26 23 26 7 16 10 12 14 21 23 13 18 23 22 20 15 16 10 17 14 12 35 15 85 27 19
39 38 41 42 39 46 59 46 46 51 50 44 39 29 23 17 11 13 6 12 16 25 41 36 29 23 32 33 24 23 15 19 9 16 15 11 19 19 14 13 30 13 34 21 18 10 16 17 3 25 13 24 30 28
38 39 40 40 38 39 57 48 42 44 47 45 38 32 24 18 13 12 7 13 9 15 13 2 6 15 15 25 33 35 35 22 21 17 21 14 17 15 17 21 22 26 9 19 15 24 12 32 17 5 44 25 27 25
37 38 39 39 38 36 57 46 41 41 42 42 37 28 26 19 13 10 8 12 6 7 14 28 27 19 13 14 21 27 32 30 24 21 17 16 29 23 26 23 18 31 23 13 22 38 33 0 20 26 40 43 34 22
35 37 38 40 34 40 53 48 44 43 46 44 37 29 25 18 11 4 4 3 10 4 11 7 7 15 13 11 19 25 26 33 36 32 21 34 40 30 15 22 29 33 35 7 16 9 11 9 44 38 51 48 31 22
35 37 37 36 32 36 53 50 40 42 49 42 35 30 28 21 20 8 7 12 20 4 7 12 10 17 14 16 17 22 20 28 31 35 38 38 37 27 20 26 37 45 42 33 23 7 11 8 21 43 49 34 34 30
31 36 37 32 33 35 55 52 39 39 44 39 35 33 30 25 15 5 6 10 19 4 5 7 9 6 14 15 14 19 18 22 30 35 29 34 35 39 19 31 39 39 41 34 25 27 41 43 36 40 38 37 40 33
31 35 31 33 38 43 56 48 43 43 38 38 38 32 26 17 10 12 15 13 10 8 5 10 14 5 4 21 4 12 14 12 23 19 28 19 20 16 19 43 43 33 32 27 33 35 37 35 41 42 34 36 36 28
33 33 33 41 37 48 50 47 49 42 46 52 49 14 11 15 20 11 10 8 4 8 11 14 17 9 8 10 7 8 12 13 12 19 27 22 24 48 44 45 34 30 21 26 38 40 40 39 30 23 25 28 29 32
33 36 42 43 42 51 49 55 54 67 65 44 13 10 22 25 13 9 8 11 10 8 14 21 31 15 11 8 6 5 6 8 14 18 17 14 23 28 64 43 7 9 18 26 34 36 37 43 42 36 34 37 25 26
37 34 34 46 46 45 57 60 74 75 37 18 19 28 28 9 6 8 8 9 12 9 17 21 25 33 9 3 11 7 6 7 11 11 7 25 6 16 12 5 5 14 21 28 32 36 37 40 40 42 44 36 26 25
34 38 44 42 49 57 58 77 74 43 40 43 11 12 9 7 5 11 14 9 8 12 13 15 11 23 16 9 11 9 10 11 10 9 6 1 11 6 4 6 13 18 22 27 30 34 37 39 39 37 36 32 21 24
33 44 46 51 53 59 78 73 53 52 26 8 11 10 9 9 12 13 15 5 9 11 12 21 3 6 23 13 6 9 10 8 7 13 14 11 13 5 9 13 17 23 25 24 33 24 22 20 28 28 23 13 17 11
45 43 45 48 63 79 77 55 53 38 5 6 11 9 14 24 7 11 6 10 14 17 23 12 5 6 4 7 8 10 5 9 11 15 16 23 15 10 13 18 21 25 21 24 27 19 8 9 14 17 21 23 28 22
46 49 54 60 66 74 52 40 35 5 2 5 9 7 13 21 21 16 18 15 18 19 26 15 6 7 13 9 11 12 12 5 6 6 26 19 17 15 16 20 23 19 20 23 20 11 6 5 8 11 15 22 24 15
51 65 56 57 63 66 34 32 9 3 7 6 8 8 17 16 11 13 11 7 14 18 7 6 7 15 11 7 11 6 6 8 19 4 22 17 15 18 19 21 22 16 13 13 12 9 3 10 13 13 20 21 20 27
65 47 46 53 53 49 19 6 2 4 9 12 13 11 6 13 10 12 9 8 6 9 11 6 11 7 7 5 5 9 28 22 25 16 21 18 13 13 15 19 14 11 9 9 6 4 7 11 14 14 18 24 26 29
51 47 49 45 39 17 6 4 5 7 11 22 11 15 12 12 7 7 7 6 10 9 7 6 9 12 5 8 6 10 9 14 12 14 17 23 9 9 14 20 11 9 11 8 4 4 3 9 11 18 16 19 23 26
51 50 49 43 28 8 7 9 11 10 9 9 13 15 18 15 10 11 17 14 12 7 9 9 13 18 9 10 6 9 11 9 10 14 17 25 24 18 15 18 12 10 7 8 10 18 6 6 12 8 12 22 27 28
41 36 31 24 6 5 6 6 13 10 9 12 14 14 18 5 8 8 11 8 6 12 19 30 33 30 28 27 20 17 17 19 22 24 28 26 23 17 19 18 15 9 6 2 6 8 7 0 2 17 12 18 24 21
27 23 12 19 5 5 8 9 9 9 9 14 11 12 6 9 9 8 14 13 10 26 28 28 30 31 36 35 28 26 32 32 32 33 41 37 33 31 16 14 17 10 9 15 16 16 16 12 16 16 11 20 14 19
18 9 3 7 6 8 10 9 7 4 4 10 14 7 6 8 10 15 8 9 16 20 33 40 43 37 34 35 35 33 30 28 31 31 34 33 30 14 16 15 20 19 20 19 11 7 6 5 3 11 11 14 10 19
2 5 5 5 8 8 5 6 6 3 4 5 5 6 5 7 14 4 5 9 19 31 40 18 13 16 14 18 20 22 22 22 26 33 25 19 13 16 13 18 24 31 23 22 11 12 16 20 17 20 16 15 13 17
7 6 8 10 9 9 4 2 3 5 4 3 3 3 4 8 4 4 5 14 24 30 41 28 31 27 21 10 3 8 11 12 14 15 16 16 14 16 31 28 24 18 13 9 29 23 19 19 19 15 15 15 14 15
5 7 5 9 6 6 4 3 2 3 1 2 3 3 6 3 1 4 3 24 29 35 29 34 34 35 33 26 24 21 21 12 12 18 16 17 20 40 41 30 22 18 26 26 14 15 17 10 15 15 18 17 17 15
6 11 10 6 6 6 2 3 6 4 4 1 0 3 2 6 11 14 34 32 20 19 22 25 28 39 46 47 35 28 35 38 42 42 36 27 29 31 33 33 28 23 34 25 18 10 14 6 7 6 12 18 16 11
4 4 9 7 5 12 3 5 4 8 7 7 5 11 9 12 4 1 15 29 36 50 40 38 18 18 15 34 45 40 33 36 40 45 51 46 38 35 31 44 26 14 7 2 5 18 8 9 8 9 7 3 2 7
4 9 9 11 10 9 16 13 11 15 15 14 7 5 0 0 12 18 23 31 20 14 21 44 42 31 35 43 41 36 34 28 20 14 23 20 9 16 28 27 17 3 6 4 10 11 12 11 10 7 2 8 11 6
22 17 8 10 9 10 13 18 27 30 37 45 38 23 16 25 34 23 36 34 37 35 30 35 41 41 44 40 32 37 40 41 43 41 30 24 10 14 10 11 8 11 10 4 13 8 11 12 5 12 11 12 19 19
11 10 12 8 7 10 17 16 19 19 21 19 27 32 32 37 39 39 36 37 38 39 39 37 37 40 39 34 32 31 30 34 36 33 28 27 26 23 34 28 26 24 13 12 14 11 15 16 18 20 4 6 11 11
7 10 10 6 6 7 13 13 17 18 13 15 10 23 28 32 41 41 39 36 39 40 39 37 35 33 31 29 29 25 24 27 34 42 39 29 21 13 24 23 20 19 22 19 21 23 21 19 9 10 12 10 14 18
16 23 23 10 5 3 8 7 8 10 14 22 33 28 28 30 31 28 32 37 37 36 36 32 29 29 28 28 26 27 23 26 28 32 46 43 29 20 19 24 26 24 20 18 18 20 15 13 14 16 17 16 19 20
Wind_Direction_850mb
253 252 251 249 247 223 227 229 226 225 226 228 239 251 264 281 290 225 142 290 263 286 279 286 299 296 300 289 281 19 282 273 280 262 247 264 268 268 255 277 169 220 199 231 249 273 276 4 28 74 318 314 7 335
253 254 247 243 241 225 221 227 224 220 224 223 231 238 256 264 276 221 289 287 271 260 269 296 272 263 262 276 305 302 295 327 354 279 257 266 263 275 275 245 257 255 271 316 321 342 131 118 167 153 179 260 329 316
254 255 244 239 240 229 218 221 223 219 217 220 224 230 246 250 252 220 207 281 310 283 290 258 259 265 246 239 239 276 260 339 282 323 325 288 282 274 283 275 310 271 262 276 294 156 159 90 106 209 239 307 311 318
252 251 241 235 237 233 215 213 214 212 211 212 213 223 231 246 241 225 203 282 295 294 280 105 181 267 255 229 232 237 268 291 277 295 286 280 294 306 283 281 284 289 326 329 315 285 232 68 64 225 325 324 315 313
245 245 232 232 230 229 213 211 209 209 207 204 206 213 224 231 236 222 227 270 265 305 314 308 314 254 259 230 226 235 242 244 263 264 252 258 265 276 281 287 277 286 308 276 274 100 115 257 356 310 317 318 304 305
241 236 228 223 230 224 206 200 205 204 202 199 197 209 209 212 205 140 187 191 248 269 294 279 291 247 239 239 234 232 234 233 240 251 262 266 263 288 271 273 279 265 257 360 16 29 108 211 285 261 263 286 296 285
238 228 223 218 226 218 199 193 195 199 195 186 189 201 194 178 144 189 217 203 193 212 276 285 255 177 212 228 230 222 226 228 232 241 245 259 267 265 264 266 280 294 304 318 325 282 182 237 230 244 258 283 285 271
231 214 209 214 218 199 188 188 189 188 183 177 182 174 168 168 183 196 230 183 174 221 251 269 264 188 184 209 195 214 219 219 230 236 248 233 249 253 258 264 270 275 287 282 281 277 267 269 267 266 266 269 270 266
208 202 207 204 194 182 183 187 182 176 175 171 158 155 140 143 183 215 209 182 183 169 264 257 281 71 158 244 217 169 241 221 233 229 232 252 237 230 232 237 248 264 269 274 285 288 287 269 253 252 255 254 257 262
202 199 203 183 178 176 181 177 174 172 169 146 136 115 174 177 194 167 160 195 197 212 230 254 272 251 280 254 181 241 218 242 244 220 228 223 244 258 249 242 248 250 283 294 289 280 274 272 264 268 243 245 251 261
189 184 176 175 170 177 175 175 167 146 141 136 140 150 147 144 140 196 210 211 165 229 227 237 229 231 247 269 287 231 300 258 241 231 206 228 222 231 231 245 190 272 278 285 279 274 266 264 267 261 260 261 256 279
166 175 169 177 172 175 168 164 154 151 140 145 151 128 132 161 205 229 201 201 205 238 187 219 203 210 235 294 245 279 241 248 252 313 240 233 95 80 70 82 259 276 287 289 283 276 269 262 257 255 258 271 279 263
164 167 169 170 162 163 164 154 149 140 135 131 108 142 150 158 218 222 195 198 209 196 203 200 191 182 212 272 247 194 245 218 205 201 227 96 115 111 50 314 295 297 297 293 286 278 267 259 253 251 251 262 259 244
149 145 146 153 161 164 153 150 148 152 147 140 150 150 207 209 216 226 228 127 228 195 194 194 219 241 210 184 261 262 221 249 208 230 212 131 112 68 10 346 328 312 307 292 296 290 277 246 236 230 240 215 196 161
131 138 147 156 156 153 151 153 155 156 133 200 198 205 213 229 227 235 222 189 225 166 161 146 339 292 274 262 248 260 260 234 234 236 108 123 96 49 13 356 340 328 322 311 314 308 275 252 225 208 196 197 203 190
132 134 139 145 151 154 156 163 157 171 278 243 229 231 257 243 239 198 242 222 251 207 163 180 200 205 204 193 231 240 230 221 48 69 118 106 61 33 8 355 352 340 335 327 324 326 258 225 196 180 176 200 220 195
139 135 143 150 157 161 142 158 136 275 280 238 233 264 257 277 274 279 265 229 237 253 157 212 209 222 217 220 199 245 334 134 74 16 119 86 47 21 2 357 353 343 347 338 346 306 137 119 109 116 139 155 163 145
134 133 148 155 158 166 137 99 10 297 262 251 275 252 287 271 250 250 240 252 210 225 226 230 280 252 244 254 21 22 358 53 58 61 44 27 20 11 4 348 8 347 338 345 356 45 105 116 121 131 140 137 141 152
128 134 141 143 143 117 116 202 286 290 269 292 282 309 279 273 223 225 220 230 219 232 279 273 262 252 36 360 149 167 261 20 21 356 345 359 352 7 8 356 2 332 330 290 49 75 181 203 215 161 144 153 151 155
133 136 139 141 138 109 190 208 210 265 277 290 276 279 266 259 265 253 248 242 216 209 229 227 239 279 91 68 43 304 299 316 316 311 305 321 332 343 343 343 308 296 303 314 272 239 45 265 26 88 155 163 157 156
135 144 145 150 195 273 261 236 224 249 282 266 281 273 295 288 210 260 282 269 250 231 245 247 263 287 302 318 304 290 287 285 283 284 289 294 298 310 309 310 287 269 225 169 68 55 170 347 79 110 102 149 139 156
154 152 157 190 299 273 264 241 251 282 260 290 353 332 332 352 357 22 316 242 240 258 266 287 298 305 294 295 294 295 281 269 273 268 272 265 271 274 267 285 224 205 161 150 139 120 102 85 90 99 108 113 113 138
136 150 229 222 248 244 272 229 260 242 300 353 348 3 28 9 360 338 287 297 296 338 317 290 276 269 266 273 280 272 276 271 262 254 255 254 258 257 271 261 210 174 176 184 172 161 147 104 152 119 127 128 139 140
241 249 247 234 231 254 259 246 217 224 73 26 359 344 18 347 338 340 284 301 311 351 357 359 308 284 260 264 270 277 282 276 256 249 252 252 250 258 219 185 173 173 172 164 163 206 202 180 179 157 170 161 153 156
262 246 233 255 249 221 197 37 46 56 69 26 359 351 354 347 337 321 299 332 355 13 23 50 60 68 62 113 7 338 327 285 268 252 234 211 192 169 159 159 155 143 171 244 186 172 164 160 143 157 163 166 167 170
282 222 181 335 23 28 41 61 55 26 99 246 260 181 207 239 184 274 359 18 2 32 42 34 32 33 53 64 67 51 30 59 150 142 130 164 184 164 152 144 143 64 64 74 121 148 188 178 149 158 154 154 174 180
291 29 357 23 334 332 339 254 230 221 242 240 108 173 192 39 47 358 360 15 2 13 12 14 36 70 72 56 57 81 78 71 76 80 79 99 123 150 152 142 151 91 86 81 102 212 320 352 177 215 202 199 196 208
287 280 354 15 35 18 328 328 34 17 28 6 60 30 29 25 49 34 29 38 44 41 41 39 54 81 106 85 58 69 90 89 92 89 93 94 110 121 139 167 173 185 236 293 13 6 330 357 29 43 28 344 146 201
285 78 71 22 24 36 23 23 24 30 64 55 64 60 347 347 6 18 30 20 19 192 72 62 70 96 106 110 82 71 58 53 40 50 83 81 118 165 157 163 167 181 239 346 321 326 341 307 310 323 124 5 331 252
76 68 94 42 24 40 44 81 89 93 110 103 109 105 79 59 42 43 38 39 44 53 53 58 57 57 70 62 66 68 55 51 48 49 39 31 93 79 14 296 239 20 242 215 263 269 347 344 321 343 305 305 287 288
71 64 75 70 68 42 44 66 100 119 118 123 113 95 86 72 60 52 48 44 49 51 50 49 46 45 44 44 42 41 37 30 28 35 46 30 21 34 28 9 10 16 1 348 343 347 338 317 311 334 305 337 328 310
55 109 129 106 76 18 31 65 74 83 94 105 108 118 98 74 63 51 43 47 49 46 43 43 44 39 36 40 39 37 36 26 21 16 5 1 360 5 15 3 347 350 350 334 327 339 325 335 346 334 354 348 320 335
103 106 99 84 73 65 33 62 47 55 53 69 70 74 82 77 66 53 47 42 43 40 37 34 35 31 29 25 21 20 17 7 5 10 5 12 17 14 10 5 359 345 332 318 314 316 340 3 1 354 360 346 333 330